GW0881 Weather Reports


Display with metric or nautical units.
time (UTC)temp
F
wind
direction
speed
MPH
gust
MPH
rain 1hr
in
rain 24hr
in
rain mn
in
humidity
%
barometer
mb
20240520054905 59 204 0.0 0.0 0.00 0.00 0.00 65 1008.0
20240520054403 60 209 0.0 0.0 0.00 0.00 0.00 65 1008.1
20240520053902 60 209 0.0 0.0 0.00 0.00 0.00 65 1008.0
20240520053401 60 208 0.0 0.0 0.00 0.00 0.00 64 1008.1
20240520052900 60 208 0.0 0.0 0.00 0.00 0.00 63 1008.1
20240520052359 60 206 0.0 0.0 0.00 0.00 0.00 65 1008.1
20240520051858 60 206 0.0 0.0 0.00 0.00 0.00 63 1008.1
20240520051358 60 196 0.0 0.0 0.00 0.00 0.00 63 1008.1
20240520050857 60 208 0.0 0.0 0.00 0.00 0.00 64 1008.2
20240520050357 60 208 0.0 0.0 0.00 0.00 0.00 63 1008.3
20240520045856 60 207 0.0 0.0 0.00 0.00 0.00 62 1008.4
20240520045354 60 208 0.0 0.0 0.00 0.00 0.00 64 1008.5
20240520044853 60 204 0.0 0.0 0.00 0.00 0.00 62 1008.5
20240520044352 61 208 0.0 0.0 0.00 0.00 0.00 62 1008.7
20240520043851 61 207 0.0 0.0 0.00 0.00 0.00 60 1008.8
20240520043349 61 207 0.0 0.0 0.00 0.00 0.00 61 1008.7
20240520042848 61 207 0.0 0.0 0.00 0.00 0.00 59 1009.0
20240520042347 61 206 0.0 0.0 0.00 0.00 0.00 60 1009.0
20240520041845 61 204 0.0 0.0 0.00 0.00 0.00 58 1009.0
20240520041343 61 207 0.0 0.0 0.00 0.00 0.00 59 1009.1
20240520040842 61 207 0.0 0.0 0.00 0.00 0.00 60 1009.1
20240520040341 61 204 0.0 0.0 0.00 0.00 0.00 58 1009.0
20240520035840 61 207 0.0 0.0 0.00 0.00 0.00 59 1009.1
20240520035340 61 208 0.0 0.0 0.00 0.00 0.00 60 1009.0
20240520034838 62 206 0.0 0.0 0.00 0.00 0.00 58 1009.1
20240520034336 61 202 0.0 0.0 0.00 0.00 0.00 59 1009.0
20240520033836 61 207 0.0 0.0 0.00 0.00 0.00 58 1009.3
20240520033336 62 208 0.0 0.0 0.00 0.00 0.00 59 1009.1
20240520032834 62 204 1.0 1.0 0.00 0.00 0.00 57 1009.1
20240520032334 62 207 0.0 0.0 0.00 0.00 0.00 56 1009.2
20240520031832 62 202 0.0 0.0 0.00 0.00 0.00 57 1009.5
20240520031331 62 207 0.0 0.0 0.00 0.00 0.00 57 1009.4
20240520030831 62 205 0.0 0.0 0.00 0.00 0.00 56 1009.1
20240520030331 62 206 0.0 0.0 0.00 0.00 0.00 54 1009.3
20240520025829 62 205 0.0 1.0 0.00 0.00 0.00 54 1009.1
20240520025328 62 205 0.0 0.0 0.00 0.00 0.00 56 1009.2
20240520024828 62 206 0.0 0.0 0.00 0.00 0.00 56 1009.5
20240520024327 61 191 1.0 1.0 0.00 0.00 0.00 54 1009.4
20240520023825 61 207 0.0 0.0 0.00 0.00 0.00 59 1009.5
20240520023324 61 208 0.0 0.0 0.00 0.00 0.00 58 1009.5
20240520022822 61 207 0.0 0.0 0.00 0.00 0.00 55 1009.6
20240520022322 61 207 0.0 0.0 0.00 0.00 0.00 56 1009.9
20240520021821 62 207 0.0 0.0 0.00 0.00 0.00 54 1009.6
20240520021320 63 207 0.0 0.0 0.00 0.00 0.00 54 1009.9
20240520020820 63 205 0.0 0.0 0.00 0.00 0.00 51 1009.8
20240520020319 63 205 0.0 1.0 0.00 0.00 0.00 50 1009.6
20240520015818 64 205 0.0 0.0 0.00 0.00 0.00 50 1009.8
20240520015316 64 205 0.0 0.0 0.00 0.00 0.00 49 1009.9
20240520014814 64 205 0.0 1.0 0.00 0.00 0.00 49 1009.8
20240520014313 64 200 1.0 1.0 0.00 0.00 0.00 48 1009.6
20240520013813 64 209 0.0 0.0 0.00 0.00 0.00 49 1009.8
20240520013310 64 209 0.0 0.0 0.00 0.00 0.00 49 1009.9
20240520012810 65 211 1.0 1.0 0.00 0.00 0.00 49 1010.0
20240520012309 65 205 1.0 1.0 0.00 0.00 0.00 48 1009.9
20240520011808 65 211 1.0 1.0 0.00 0.00 0.00 48 1010.1
20240520011307 65 207 1.0 2.0 0.00 0.00 0.00 48 1010.2
20240520010805 66 206 1.0 2.0 0.00 0.00 0.00 47 1010.3
20240520010303 66 206 2.0 3.0 0.00 0.00 0.00 46 1010.4
20240520005802 66 198 1.0 1.0 0.00 0.00 0.00 47 1010.4
20240520005300 66 186 0.0 1.0 0.00 0.00 0.00 46 1010.7
20240520004800 66 191 1.0 1.0 0.00 0.00 0.00 47 1010.5
20240520004258 66 189 1.0 1.0 0.00 0.00 0.00 48 1010.7
20240520003757 67 213 1.0 1.0 0.00 0.00 0.00 47 1010.6
20240520003257 67 210 1.0 2.0 0.00 0.00 0.00 45 1010.4
20240520002757 67 208 0.0 0.0 0.00 0.00 0.00 46 1010.6
20240520002257 67 202 0.0 1.0 0.00 0.00 0.00 46 1010.4
20240520001758 67 209 0.0 0.0 0.00 0.00 0.00 45 1010.4
20240520001257 67 205 1.0 1.0 0.00 0.00 0.00 44 1010.3
20240520000757 67 214 1.0 1.0 0.00 0.00 0.00 43 1010.4
20240520000255 67 209 2.0 2.0 0.00 0.00 0.00 42 1010.3
20240519235753 67 202 0.0 1.0 0.00 0.00 0.00 42 1010.4
20240519235252 68 214 0.0 0.0 0.00 0.00 0.00 41 1010.3
20240519234750 68 209 0.0 1.0 0.00 0.00 0.00 40 1010.4
20240519234250 68 195 0.0 1.0 0.00 0.00 0.00 39 1010.2
20240519233749 68 204 0.0 1.0 0.00 0.00 0.00 40 1010.2
20240519233248 68 204 1.0 1.0 0.00 0.00 0.00 40 1010.4
20240519232746 68 206 1.0 1.0 0.00 0.00 0.00 39 1010.3
20240519232245 68 207 0.0 0.0 0.00 0.00 0.00 39 1010.4
20240519231745 68 192 2.0 3.0 0.00 0.00 0.00 37 1010.4
20240519231242 69 207 2.0 3.0 0.00 0.00 0.00 36 1010.4
20240519230742 69 203 0.0 1.0 0.00 0.00 0.00 38 1010.5
20240519230239 69 212 0.0 1.0 0.00 0.00 0.00 39 1010.5
20240519225738 69 194 3.0 3.0 0.00 0.00 0.00 39 1010.5
20240519225236 69 201 1.0 1.0 0.00 0.00 0.00 40 1010.7
20240519224735 69 206 1.0 1.0 0.00 0.00 0.00 38 1010.9
20240519224234 69 206 0.0 0.0 0.00 0.00 0.00 38 1011.2
20240519223734 69 201 0.0 0.0 0.00 0.00 0.00 38 1011.2
20240519223234 69 206 2.0 3.0 0.00 0.00 0.00 37 1011.2
20240519222732 69 192 2.0 2.0 0.00 0.00 0.00 37 1011.4
20240519222231 70 218 1.0 1.0 0.00 0.00 0.00 38 1011.5
20240519221729 70 198 1.0 1.0 0.00 0.00 0.00 37 1011.6
20240519221228 70 209 4.0 5.0 0.00 0.00 0.00 35 1011.6
20240519220728 71 217 2.0 3.0 0.00 0.00 0.00 35 1011.5
20240519220228 71 218 3.0 3.0 0.00 0.00 0.00 33 1011.3
20240519215727 71 211 1.0 2.0 0.00 0.00 0.00 36 1011.6
20240519215224 71 219 0.0 0.0 0.00 0.00 0.00 37 1011.5
20240519214723 71 199 1.0 1.0 0.00 0.00 0.00 37 1011.6
20240519214220 70 216 1.0 1.0 0.00 0.00 0.00 37 1011.7
20240519213719 70 214 3.0 5.0 0.00 0.00 0.00 36 1012.0
20240519213218 70 212 1.0 2.0 0.00 0.00 0.00 37 1012.2
20240519212717 70 195 3.0 3.0 0.00 0.00 0.00 37 1012.3
20240519212215 70 206 0.0 1.0 0.00 0.00 0.00 37 1012.3
20240519211714 70 197 3.0 5.0 0.00 0.00 0.00 36 1012.5
20240519211214 70 199 3.0 3.0 0.00 0.00 0.00 37 1012.6
20240519210713 70 193 2.0 2.0 0.00 0.00 0.00 38 1012.5
20240519210211 70 209 1.0 1.0 0.00 0.00 0.00 41 1012.8
20240519205710 69 222 2.0 3.0 0.00 0.00 0.00 40 1012.8
20240519205209 69 215 2.0 2.0 0.00 0.00 0.00 39 1012.9
20240519204707 69 203 1.0 1.0 0.00 0.00 0.00 38 1013.0
20240519204205 69 216 1.0 1.0 0.00 0.00 0.00 40 1013.0
20240519203704 69 195 1.0 1.0 0.00 0.00 0.00 40 1013.2
20240519203202 69 211 2.0 2.0 0.00 0.00 0.00 41 1013.1
20240519202701 69 199 1.0 1.0 0.00 0.00 0.00 41 1013.1
20240519202200 70 209 2.0 2.0 0.00 0.00 0.00 41 1013.2
20240519201659 69 203 1.0 1.0 0.00 0.00 0.00 42 1013.1
20240519201157 69 207 1.0 1.0 0.00 0.00 0.00 40 1013.1
20240519200656 69 211 0.0 0.0 0.00 0.00 0.00 43 1013.2
20240519200155 68 218 0.0 0.0 0.00 0.00 0.00 42 1013.6
20240519195654 68 214 1.0 1.0 0.00 0.00 0.00 41 1013.7
20240519195153 68 197 1.0 1.0 0.00 0.00 0.00 42 1013.9
20240519194652 69 196 1.0 1.0 0.00 0.00 0.00 43 1014.0
20240519194151 69 206 1.0 2.0 0.00 0.00 0.00 40 1014.1
20240519193649 69 215 1.0 1.0 0.00 0.00 0.00 41 1014.2
20240519193149 70 189 1.0 1.0 0.00 0.00 0.00 42 1014.3
20240519192647 70 215 1.0 1.0 0.00 0.00 0.00 40 1014.3
20240519192146 70 180 1.0 1.0 0.00 0.00 0.00 43 1014.2
20240519191643 69 212 1.0 1.0 0.00 0.00 0.00 39 1014.3
20240519191141 69 188 0.0 1.0 0.00 0.00 0.00 41 1014.2
20240519190641 69 217 0.0 1.0 0.00 0.00 0.00 41 1014.5
20240519190140 68 209 0.0 1.0 0.00 0.00 0.00 44 1014.4
20240519185639 68 215 0.0 0.0 0.00 0.00 0.00 43 1014.7
20240519185138 68 210 0.0 1.0 0.00 0.00 0.00 43 1014.7
20240519184636 69 197 1.0 1.0 0.00 0.00 0.00 40 1014.7
20240519184134 69 200 0.0 1.0 0.00 0.00 0.00 42 1014.5
20240519183633 69 234 2.0 3.0 0.00 0.00 0.00 39 1014.5
20240519183132 69 209 1.0 1.0 0.00 0.00 0.00 41 1014.5
20240519182631 69 219 2.0 2.0 0.00 0.00 0.00 40 1014.5
20240519182130 69 210 0.0 0.0 0.00 0.00 0.00 39 1014.6
20240519181629 69 220 1.0 2.0 0.00 0.00 0.00 39 1014.5
20240519181127 69 220 1.0 2.0 0.00 0.00 0.00 39 1014.6
20240519180625 69 207 1.0 1.0 0.00 0.00 0.00 40 1014.4
20240519180125 69 209 1.0 1.0 0.00 0.00 0.00 38 1014.2
20240519175624 69 200 2.0 2.0 0.00 0.00 0.00 42 1014.3
20240519175122 69 210 1.0 1.0 0.00 0.00 0.00 40 1014.5
20240519174620 68 223 3.0 3.0 0.00 0.00 0.00 42 1014.5
20240519174119 69 205 1.0 1.0 0.00 0.00 0.00 43 1014.5
20240519173618 69 213 2.0 3.0 0.00 0.00 0.00 39 1014.7
20240519173118 68 217 0.0 0.0 0.00 0.00 0.00 44 1014.8
20240519172616 68 260 1.0 2.0 0.00 0.00 0.00 47 1014.8
20240519172116 69 210 0.0 1.0 0.00 0.00 0.00 48 1014.9
20240519171615 69 206 0.0 1.0 0.00 0.00 0.00 45 1014.9
20240519171114 68 219 0.0 0.0 0.00 0.00 0.00 45 1014.9
20240519170613 68 218 0.0 0.0 0.00 0.00 0.00 45 1015.0
20240519170112 68 201 2.0 2.0 0.00 0.00 0.00 48 1015.0
20240519165612 68 206 1.0 2.0 0.00 0.00 0.00 45 1015.2
20240519165110 67 222 1.0 1.0 0.00 0.00 0.00 49 1015.2
20240519164609 67 208 1.0 1.0 0.00 0.00 0.00 49 1015.3
20240519164109 67 204 2.0 2.0 0.00 0.00 0.00 47 1015.5
20240519163607 67 223 0.0 0.0 0.00 0.00 0.00 48 1015.5
20240519163105 67 227 0.0 0.0 0.00 0.00 0.00 48 1015.7
20240519162604 67 216 0.0 0.0 0.00 0.00 0.00 49 1015.5
20240519162103 66 227 1.0 1.0 0.00 0.00 0.00 47 1015.7
20240519161602 66 219 0.0 0.0 0.00 0.00 0.00 49 1015.6
20240519161101 66 224 1.0 1.0 0.00 0.00 0.00 51 1015.7
20240519160600 66 231 1.0 1.0 0.00 0.00 0.00 51 1015.7
20240519160059 66 222 0.0 1.0 0.00 0.00 0.00 50 1015.8
20240519155557 66 221 0.0 0.0 0.00 0.00 0.00 52 1015.8
20240519155057 66 212 1.0 1.0 0.00 0.00 0.00 51 1015.6
20240519154555 66 228 0.0 0.0 0.00 0.00 0.00 52 1015.5
20240519154055 65 237 0.0 1.0 0.00 0.00 0.00 53 1015.5
20240519153554 65 239 1.0 1.0 0.00 0.00 0.00 52 1015.4
20240519153054 65 219 1.0 2.0 0.00 0.00 0.00 52 1015.6
20240519152553 64 217 1.0 1.0 0.00 0.00 0.00 54 1015.4
20240519152052 64 227 1.0 1.0 0.00 0.00 0.00 54 1015.3
20240519151550 64 228 0.0 0.0 0.00 0.00 0.00 55 1015.4
20240519151049 64 234 0.0 0.0 0.00 0.00 0.00 56 1015.5
20240519150547 64 228 0.0 0.0 0.00 0.00 0.00 56 1015.4
20240519150046 64 211 1.0 1.0 0.00 0.00 0.00 58 1015.3
20240519145545 63 234 1.0 1.0 0.00 0.00 0.00 59 1015.5
20240519145044 63 217 0.0 1.0 0.00 0.00 0.00 61 1015.6
20240519144543 62 210 1.0 1.0 0.00 0.00 0.00 58 1015.8
20240519144042 62 214 1.0 1.0 0.00 0.00 0.00 60 1015.6
20240519143541 62 222 0.0 0.0 0.00 0.00 0.00 61 1015.6
20240519143039 62 219 1.0 1.0 0.00 0.00 0.00 60 1015.5
20240519142538 62 216 0.0 0.0 0.00 0.00 0.00 63 1015.4
20240519142037 61 220 0.0 1.0 0.00 0.00 0.00 62 1015.5
20240519141536 61 220 0.0 0.0 0.00 0.00 0.00 64 1015.6
20240519141036 61 220 0.0 0.0 0.00 0.00 0.00 65 1015.6
20240519140535 61 221 0.0 0.0 0.00 0.00 0.00 62 1015.4
20240519140034 61 220 0.0 0.0 0.00 0.00 0.00 63 1015.5
20240519135533 60 220 0.0 0.0 0.00 0.00 0.00 65 1015.5
20240519135032 60 220 0.0 0.0 0.00 0.00 0.00 65 1015.3
20240519134531 60 223 1.0 1.0 0.00 0.00 0.00 63 1015.3
20240519134031 60 214 0.0 0.0 0.00 0.00 0.00 64 1015.0
20240519133530 59 212 0.0 0.0 0.00 0.00 0.00 66 1015.2
20240519133030 59 210 0.0 0.0 0.00 0.00 0.00 67 1015.1
20240519132528 59 217 1.0 1.0 0.00 0.00 0.00 67 1015.2
20240519132028 58 215 1.0 1.0 0.00 0.00 0.00 68 1015.3
20240519131527 58 214 0.0 0.0 0.00 0.00 0.00 67 1015.2
20240519131025 58 215 0.0 0.0 0.00 0.00 0.00 67 1015.4
20240519130523 57 212 0.0 0.0 0.00 0.00 0.00 68 1015.4
20240519130023 57 214 0.0 0.0 0.00 0.00 0.00 70 1015.3
20240519125522 57 212 0.0 0.0 0.00 0.00 0.00 68 1015.1
20240519125021 57 212 0.0 0.0 0.00 0.00 0.00 68 1014.8
20240519124520 56 212 0.0 0.0 0.00 0.00 0.00 66 1014.7
20240519124020 56 211 0.0 0.0 0.00 0.00 0.00 69 1014.1
20240519123520 55 183 0.0 1.0 0.00 0.00 0.00 70 1013.9
20240519123019 55 185 0.0 1.0 0.00 0.00 0.00 70 1014.0
20240519122517 55 220 0.0 0.0 0.00 0.00 0.00 69 1014.8
20240519122015 54 232 1.0 1.0 0.00 0.00 0.00 70 1015.0
20240519121515 54 226 0.0 0.0 0.00 0.00 0.00 70 1015.1
20240519121014 54 231 0.0 0.0 0.00 0.00 0.00 71 1015.5
20240519120510 53 228 0.0 1.0 0.00 0.00 0.00 72 1015.1
20240519120009 52 220 0.0 0.0 0.00 0.00 0.00 73 1015.2
20240519115508 51 219 1.0 1.0 0.00 0.00 0.00 75 1015.2
20240519115008 50 218 0.0 0.0 0.00 0.00 0.00 77 1015.1
20240519114506 48 215 0.0 0.0 0.00 0.00 0.00 81 1015.1
20240519114006 47 215 0.0 0.0 0.00 0.00 0.00 87 1014.7
20240519113505 47 215 0.0 0.0 0.00 0.00 0.00 87 1014.6
20240519113004 47 215 0.0 0.0 0.00 0.00 0.00 87 1014.5
20240519112502 47 215 0.0 0.0 0.00 0.00 0.00 87 1014.2
20240519112001 46 215 0.0 0.0 0.00 0.00 0.00 87 1014.2
20240519111459 47 215 0.0 0.0 0.00 0.00 0.00 87 1013.9
20240519110957 47 215 0.0 0.0 0.00 0.00 0.00 87 1013.7
20240519110457 47 211 0.0 0.0 0.00 0.00 0.00 87 1013.2
20240519105957 47 211 0.0 0.0 0.00 0.00 0.00 87 1013.4
20240519105456 47 211 0.0 0.0 0.00 0.00 0.00 86 1013.5
20240519104954 47 211 0.0 0.0 0.00 0.00 0.00 86 1013.2
20240519104454 48 211 0.0 0.0 0.00 0.00 0.00 85 1013.4
20240519103953 48 210 0.0 0.0 0.00 0.00 0.00 84 1013.5
20240519103452 48 211 0.0 0.0 0.00 0.00 0.00 84 1013.6
20240519102951 48 213 0.0 0.0 0.00 0.00 0.00 84 1013.6
20240519102449 49 213 0.0 0.0 0.00 0.00 0.00 83 1013.7
20240519101948 49 213 0.0 0.0 0.00 0.00 0.00 81 1013.6
20240519101447 49 213 0.0 0.0 0.00 0.00 0.00 81 1013.5
20240519100946 50 211 0.0 0.0 0.00 0.00 0.00 80 1013.8
20240519100446 50 215 0.0 1.0 0.00 0.00 0.00 78 1013.7
20240519095946 50 213 0.0 0.0 0.00 0.00 0.00 80 1013.5
20240519095444 50 213 0.0 0.0 0.00 0.00 0.00 78 1013.9
20240519094944 50 213 1.0 1.0 0.00 0.00 0.00 78 1013.8
20240519094443 49 213 0.0 0.0 0.00 0.00 0.00 79 1013.6
20240519093942 49 213 0.0 0.0 0.00 0.00 0.00 81 1013.5
20240519093439 49 213 0.0 0.0 0.00 0.00 0.00 79 1013.4
20240519092938 49 211 0.0 1.0 0.00 0.00 0.00 81 1013.4
20240519092437 48 211 0.0 1.0 0.00 0.00 0.00 83 1013.4
20240519091937 49 212 0.0 0.0 0.00 0.00 0.00 82 1013.5
20240519091435 49 211 0.0 0.0 0.00 0.00 0.00 81 1013.2
20240519090933 49 211 0.0 0.0 0.00 0.00 0.00 81 1013.4
20240519090431 49 210 0.0 0.0 0.00 0.00 0.00 80 1013.1
20240519085930 49 210 0.0 1.0 0.00 0.00 0.00 81 1013.4
20240519085428 49 213 0.0 1.0 0.00 0.00 0.00 81 1013.4
20240519084926 49 210 0.0 0.0 0.00 0.00 0.00 81 1013.2
20240519084425 49 211 0.0 0.0 0.00 0.00 0.00 82 1013.2
20240519083923 49 214 0.0 0.0 0.00 0.00 0.00 82 1013.0
20240519083423 49 214 0.0 0.0 0.00 0.00 0.00 82 1013.0
20240519082923 49 213 0.0 0.0 0.00 0.00 0.00 81 1012.8
20240519082423 49 211 1.0 1.0 0.00 0.00 0.00 82 1012.8
20240519081921 49 213 0.0 1.0 0.00 0.00 0.00 81 1012.8
20240519081421 50 214 0.0 1.0 0.00 0.00 0.00 79 1012.6
20240519080920 50 214 0.0 0.0 0.00 0.00 0.00 79 1012.6
20240519080417 50 217 0.0 1.0 0.00 0.00 0.00 79 1012.5
20240519075917 51 217 1.0 1.0 0.00 0.00 0.00 77 1012.6
20240519075416 51 217 0.0 0.0 0.00 0.00 0.00 76 1012.5
20240519074915 52 218 0.0 0.0 0.00 0.00 0.00 76 1012.5
20240519074415 53 226 0.0 0.0 0.00 0.00 0.00 75 1012.5
20240519073913 53 226 0.0 0.0 0.00 0.00 0.00 71 1012.5
20240519073413 54 226 0.0 0.0 0.00 0.00 0.00 68 1012.7
20240519072912 55 234 1.0 1.0 0.00 0.00 0.00 65 1012.7
20240519072411 55 228 0.0 0.0 0.00 0.00 0.00 64 1012.7
20240519071909 55 229 0.0 0.0 0.00 0.00 0.00 63 1012.5
20240519071408 56 229 0.0 0.0 0.00 0.00 0.00 62 1013.0
20240519070908 57 229 1.0 1.0 0.00 0.00 0.00 60 1012.8
20240519070406 57 232 1.0 1.0 0.00 0.00 0.00 60 1012.6
20240519065904 56 236 1.0 1.0 0.00 0.00 0.00 60 1012.7
20240519065403 56 229 0.0 1.0 0.00 0.00 0.00 61 1012.6
20240519064902 56 230 0.0 0.0 0.00 0.00 0.00 61 1012.6
20240519064401 55 231 0.0 0.0 0.00 0.00 0.00 63 1012.7
20240519063900 55 232 1.0 1.0 0.00 0.00 0.00 64 1012.7
20240519063400 55 228 0.0 0.0 0.00 0.00 0.00 64 1012.6
20240519062858 55 226 0.0 0.0 0.00 0.00 0.00 65 1012.6
20240519062358 56 226 1.0 1.0 0.00 0.00 0.00 70 1012.8
20240519061857 56 233 1.0 1.0 0.00 0.00 0.00 61 1012.6
20240519061357 55 233 1.0 1.0 0.00 0.00 0.00 64 1012.8
20240519060855 55 229 0.0 0.0 0.00 0.00 0.00 64 1012.6
20240519060354 56 229 0.0 0.0 0.00 0.00 0.00 68 1012.5
20240519055854 57 229 0.0 1.0 0.00 0.00 0.00 66 1012.6
20240519055352 57 230 0.0 0.0 0.00 0.00 0.00 60 1012.6